Regional Weather Roundup
Issued by NWS Jackson, KY

Home | Current Version | Previous Version | Graphics & Text | Print | Product List | Glossary On
Versions: 1 2 3 4 5 6 7 8 9 10 11 12 13 14 15 16 17 18 19 20 21 22 23 24 25 26 27
000
ASUS43 KJKL 050910
RWRJKL

EAST KENTUCKY HOURLY WEATHER ROUNDUP
NATIONAL WEATHER SERVICE JACKSON KY
500 AM EDT THU MAY 05 2016

NOTE: "FAIR" INDICATES FEW OR NO CLOUDS BELOW 12,000 FEET WITH
NO SIGNIFICANT WEATHER AND/OR OBSTRUCTIONS TO VISIBILITY.

* THESE REPORTS ARE NOT UNDER NWS QUALITY CONTROL AND MAY NOT
  REPORT WEATHER SUCH AS PRECIPITATION AND FOG.

KYZ079-080-083-085-087-088-110-112-115-119-120-051000
...EASTERN KENTUCKY...

CITY           SKY/WX    TMP DP  RH WIND       PRES   REMARKS
JACKSON        CLOUDY    42  39  89 CALM      29.72S
LONDON         CLEAR     42  39  89 W3        29.74S
SOMERSET*      MOCLDY    43  43 100 CALM      29.76F
MONTICELLO*    CLOUDY    45  43  93 W6        29.78S
WILLIAMSBURG*  MOSUNNY   41  41 100 CALM      29.75S
MIDDLESBORO*   CLEAR     43  43 100 CALM      29.75R
HARLAN APT*      N/A     43  37  81 W3        29.72S
BLACK MTN*       N/A     32  36 100 N9          N/A  WCI  24
PIKE CO APT*   MOCLDY    41  41 100 NW5       29.72S
BIG SANDY APT* MOSUNNY   42  41  94 W3        29.72S
MOREHEAD APT*  CLOUDY    41  39  93 S3        29.74S
$$

KYZ035-036-041-042-044-050-067-078-099-051000
...CENTRAL KENTUCKY...

CITY           SKY/WX    TMP DP  RH WIND       PRES   REMARKS
MT STERLING*   CLOUDY    43  39  87 CALM      29.73F
FLEMING/MASON* DRIZZLE   42  39  90 CALM      29.74R
DANVILLE*      CLOUDY    43  41  93 W6        29.75S
RICHMOND*      CLOUDY    43  37  81 W6        29.73S
LEXINGTON      LGT RAIN  45  39  79 W6        29.72F
FRANKFORT      LGT RAIN  46  38  73 W5        29.72S
LOUISVILLE     LGT RAIN  47  42  83 NW7       29.75F
LEBANON*         N/A     46  41  81 SW5       29.75F
BOWLING GREEN  CLOUDY    48  42  80 W6        29.78F
$$

KYZ091>093-OHZ055-061-077-WVZ005-015-034-035-042-051000
...SOUTHERN OHIO/WEST VIRGINIA...

CITY           SKY/WX    TMP DP  RH WIND       PRES   REMARKS
COVINGTON      LGT RAIN  42  40  92 N6        29.72R
COLUMBUS       CLEAR     39  36  89 N3        29.71R
DAYTON         CLOUDY    39  37  92 N6        29.74R WCI  35
WILMINGTON     CLOUDY    42  36  79 N3        29.71R
HUNTINGTON     CLOUDY    45  41  86 W5        29.71S
CHARLESTON     LGT RAIN  47  43  86 W6        29.69R FOG
PINEVILLE*     CLOUDY    46  42  86 MISG      29.72S
BECKLEY        LGT RAIN  43  41  93 W7        29.65S
$$

VAZ002-007-008-TNZ017-027-036-066-071-051000
...SOUTHWEST VIRGINIA/EAST TENNESSEE...

CITY           SKY/WX    TMP DP  RH WIND       PRES   REMARKS
WISE*          MOCLDY    41  37  87 NW6       29.70S
BRISTOL        CLOUDY    46  42  86 CALM      29.69F
MORRISTOWN*    PTSUNNY   46  45  93 CALM      29.72R FOG
SEVIERVILLE*   CLOUDY    46  45  93 W3        29.73S
KNOXVILLE      CLOUDY    48  43  82 W6        29.74S
OAK RIDGE      MOCLDY    47  43  86 CALM      29.76S
CROSSVILLE     PTCLDY    42  40  92 W7        29.76F
NASHVILLE      MOCLDY    47  41  80 W3        29.81F
$$

...KEY TO REMARKS...
VSB - VISIBILITY IN MILES
WCI - WIND CHILL INDEX
HX  - HEAT INDEX

$$




USA.gov is the U.S. government's official web portal to all federal, state and local government web resources and services.